Location: Grandview
(34.8900°N, 117.1058°W)
Time: 01:13:47
(UTC-08:00)

Envisat - Pass Details

Date: 07 October 2017
Orbit: 764 x 766 km, 98.2° (Epoch: 15 December)

Event Time Altitude Azimuth Distance (km) Brightness Sun altitude
Exits shadow 21:38:58 19° 303° (WNW) 1,764 5.4 -40.1°
Drops below altitude 10° 21:40:53 10° 320° (NW) 2,306 6.0 -40.4°
Sets 21:43:34 0° 333° (NNW) 3,237 6.8 -40.9°
